{"data":{"norad_id":58725,"epoch":"2026-05-25T05:19:55.182144Z","epoch_age_seconds":45968,"freshness":"FRESH","line1":"1 58725U 24002W   26145.22216646  .00000812  00000+0  39544-4 0  9991","line2":"2 58725  53.1610 234.3864 0000908 105.1552 254.9549 15.30193280133738","mean_motion":15.3019328,"eccentricity":9.08e-5,"inclination_deg":53.161,"raan_deg":234.3864,"arg_perigee_deg":105.1552,"mean_anomaly_deg":254.9549,"bstar":3.9544e-5,"rev_number":13373,"period_min":94.105758979676,"perigee_km":474.61284801168,"apogee_km":475.85742039125,"semimajor_km":6853.3721342015,"source":"CELESTRAK","updated_at":"2026-05-25T13:38:18.718917Z"}}